Regional Weather Roundup
Issued by NWS

Home | Current Version | Previous Version | Text Only | Print | Product List | Glossary Off
Versions: 1 2 3 4 5 6 7 8 9 10 11 12 13 14 15 16 17 18 19 20 21 22 23 24 25 26 27 28 29 30 31 32 33 34 35 36 37 38 39 40 41 42 43 44 45 46 47 48 49 50

000
ASUS43 KFSD 050810
RWRSD

WEATHER ROUNDUP FOR SOUTH DAKOTA
NATIONAL WEATHER SERVICE SIOUX FALLS SD
300 AM CDT THU MAY 05 2016

NOTE: "FAIR" INDICATES FEW OR NO CLOUDS BELOW 12,000 FEET WITH NO
SIGNIFICANT WEATHER AND/OR OBSTRUCTIONS TO VISIBILITY.


SDZ001>005-009-010-012>017-050900-
NORTHWEST AND NORTH CENTRAL SOUTH DAKOTA

CITY           SKY/WX    TMP DP  RH WIND       PRES   REMARKS
BUFFALO          N/A     55  43  63 SE13      29.90F
FAITH            N/A     50  42  74 S16       29.99F
MOBRIDGE       CLEAR     52  45  77 SE6       29.95F
$$

SDZ012>016-024>037-041>051-057-063-072>074-050900-
SOUTHWEST AND SOUTH CENTRAL SOUTH DAKOTA

CITY           SKY/WX    TMP DP  RH WIND       PRES   REMARKS
RAPID CTY ARPT CLEAR     48  42  80 SE8       30.00F
PIERRE         PTCLDY    49  39  68 S3        30.00S
CUSTER         CLOUDY    47  34  60 W5        30.11F
ELLSWORTH AFB  CLEAR     56  42  59 S10       29.99F
PHILIP         PTCLDY    55  41  59 S8        30.01F
PINE RIDGE     CLEAR     53  40  61 CALM      30.03F
WINNER         FAIR      54  38  54 SW9       30.04S
$$

SDZ004>011-016>023-039-040-050900-
NORTHEAST SOUTH DAKOTA

CITY           SKY/WX    TMP DP  RH WIND       PRES   REMARKS
ABERDEEN       CLEAR     44  35  70 S7        29.97F
WATERTOWN      CLEAR     43  35  73 CALM      30.00F
BROOKINGS      CLEAR     45  34  65 SE3       30.01F
SISSETON         N/A     49  33  54 SW8       29.95F
$$

SDZ017-020-022-023-036>040-048>070-050900-
SOUTHEAST SOUTH DAKOTA

CITY           SKY/WX    TMP DP  RH WIND       PRES   REMARKS
SIOUX FALLS    CLEAR     43  36  76 CALM      30.03R
HURON          CLEAR     48  41  76 CALM      30.00F
CHAMBERLAIN    PTCLDY    52  45  76 CALM      30.02F
MITCHELL       CLEAR     48  43  82 CALM      30.02F
YANKTON        CLEAR     48  39  71 CALM      30.03S
$$

ABBREVIATIONS USED IN REMARKS
   TC - TEMPERATURE IN CELSIUS
  WCI - WIND CHILL INDEX
   HX - HEAT INDEX
  VSB - VISIBILITY




USA.gov is the U.S. government's official web portal to all federal, state and local government web resources and services.